Regional Weather Roundup
Issued by NWS Sioux Falls, SD

Home | Current Version | Previous Version | Text Only | Print | Product List | Glossary On
Versions: 1 2 3 4 5 6 7 8 9 10 11 12 13 14 15 16 17 18 19 20 21 22 23 24 25 26 27 28 29 30 31 32 33 34 35 36 37 38 39 40 41 42 43 44 45 46 47 48 49 50
000
ASUS43 KFSD 301810
RWRFSD

WEATHER ROUNDUP FOR SE SOUTH DAKOTA/SW MINNESOTA/NW IOWA
NATIONAL WEATHER SERVICE SIOUX FALLS SD
1200 PM CST FRI JAN 30 2015

NOTE: "FAIR" INDICATES FEW OR NO CLOUDS BELOW 12,000 FEET WITH NO
SIGNIFICANT WEATHER AND OR OBSTRUCTIONS TO VISIBILITY.


SDZ038>040-050-052>070-301900-
SOUTHEAST SOUTH DAKOTA

CITY           SKY/WX    TMP DP  RH WIND       PRES   REMARKS
CHAMBERLAIN    MOSUNNY   39  28  63 S14G20    30.22F
6HR MIN TEMP:  18; 6HR MAX TEMP:  39;

HURON          SUNNY     32  24  72 S18G25    30.26F WCI  20
6HR MIN TEMP:  17; 6HR MAX TEMP:  32;

MADISON        FAIR      28  28 100 S18G24    30.30F WCI  16
MITCHELL       SUNNY     34  26  72 S18       30.29F WCI  23
6HR MIN TEMP:  19; 6HR MAX TEMP:  34;

SIOUX FALLS    MOSUNNY   30  23  75 S16       30.35F WCI  19
6HR MIN TEMP:  18; 6HR MAX TEMP:  30;

WINNER         FAIR      46  26  45 S20       30.19F
YANKTON        MOSUNNY   36  27  69 S15       30.37F
$$

MNZ071-072-080-081-089-090-097-098-301900-
SOUTHWEST MINNESOTA

CITY           SKY/WX    TMP DP  RH WIND       PRES   REMARKS
FAIRMONT       SUNNY     25  12  58 S9G16     30.45F WCI  15
JACKSON        SUNNY     25  18  74 S8        30.43F WCI  16
LUVERNE        MOSUNNY   30  23  74 S16       30.38F WCI  19
MARSHALL       PTSUNNY   28  19  69 S13       30.39F WCI  18
6HR MIN TEMP:  16; 6HR MAX TEMP:  28;

MONTEVIDEO     CLOUDY    25  21  86 SW13      30.39F WCI  13
PIPESTONE      MOSUNNY   28  23  80 S15       30.33F WCI  17
REDWOOD FALLS  CLOUDY    21  16  81 S13       30.43F WCI   9
TRACY          CLOUDY    26  21  80 S10       30.39F WCI  16
WINDOM         CLOUDY    23  19  86 S8        30.41F WCI  14
WORTHINGTON    MOSUNNY   25  18  74 S13       30.40F WCI  13
$$

IAZ001>003-012>014-020>022-031-032-NEZ013-014-SDZ071-301900-
NORTHWEST IOWA

CITY           SKY/WX    TMP DP  RH WIND       PRES   REMARKS
CHEROKEE       SUNNY     27  21  79 S13       30.44F WCI  16
DENISON        SUNNY     28  19  69 S10G17    30.45F WCI  19
ESTHERVILLE    SUNNY     24  14  65 S8        30.44F WCI  15
LE MARS        MOSUNNY   28  23  80 S15G21    30.43F WCI  17
ORANGE CITY    SUNNY     28  21  74 S14       30.41F WCI  17
SHELDON        SUNNY     27  23  86 S12       30.40F WCI  16
SIOUX CITY     MOSUNNY   31  22  69 S12       30.45F WCI  22
6HR MIN TEMP:  16; 6HR MAX TEMP:  31;

SPENCER        SUNNY     27  18  69 SW12      30.43F WCI  17
6HR MIN TEMP:  13; 6HR MAX TEMP:  27;

STORM LAKE     SUNNY     27  19  74 S13G21    30.44F WCI  16
$$

ABBREVIATIONS USED IN REMARKS
   TC - TEMPERATURE IN CELSIUS
  WCI - WIND CHILL INDEX
   HX - HEAT INDEX
  VSB - VISIBILITY




USA.gov is the U.S. government's official web portal to all federal, state and local government web resources and services.